FW7772 Weather Reports


Display with metric or nautical units.
time (UTC)temp
F
wind
direction
speed
MPH
gust
MPH
rain 1hr
in
rain 24hr
in
rain mn
in
humidity
%
barometer
mb
20260905081029 55 71 0.0 2.0 0.00 0.00 0.00 84 999.4
20260905080030 54 71 1.0 2.0 0.00 0.00 0.00 84 999.3
20260905075029 54 99 2.0 5.0 0.00 0.00 0.00 83 999.2
20260905074951 54 347 2.0 5.0 0.00 0.00 0.00 79 999.2
20260905073029 53 31 2.0 4.0 0.00 0.00 0.00 82 999.1
20260905072504 52 351 1.0 3.0 0.00 0.00 0.00 85 999.0
20260905071029 51 14 2.0 4.0 0.00 0.00 0.00 85 999.0
20260905070504 50 305 0.0 4.0 0.00 0.00 0.00 87 998.9
20260905065029 49 310 0.0 0.0 0.00 0.00 0.00 89 998.9
20260905064029 48 353 0.0 3.0 0.00 0.00 0.00 90 998.9
20260905063030 47 334 2.0 4.0 0.00 0.00 0.00 91 998.8
20260905062028 47 356 2.0 3.0 0.00 0.00 0.00 92 998.7
20260905061029 46 317 2.0 3.0 0.00 0.00 0.00 92 998.7
20260905060029 45 320 1.0 4.0 0.00 0.00 0.00 92 998.6
20260905055029 45 310 2.0 3.0 0.00 0.00 0.00 92 998.5
20260905054031 45 287 3.0 7.0 0.00 0.00 0.00 92 998.4
20260905053029 44 291 4.0 9.0 0.00 0.00 0.00 92 998.3
20260905052029 44 300 5.0 8.0 0.00 0.00 0.00 92 998.2
20260905051959 44 310 4.0 8.0 0.00 0.00 0.00 91 998.2
20260905050511 44 272 4.0 6.0 0.00 0.00 0.00 91 998.2
20260905045029 44 305 3.0 8.0 0.00 0.00 0.00 91 998.2
20260905044028 45 300 3.0 4.0 0.00 0.00 0.00 91 998.1
20260905043516 45 305 3.0 4.0 0.00 0.00 0.00 91 998.1
20260905042031 45 300 2.0 4.0 0.00 0.00 0.00 91 998.1
20260905041029 45 320 2.0 4.0 0.00 0.00 0.00 91 998.0
20260905040030 45 319 2.0 5.0 0.00 0.00 0.00 91 998.1
20260905035029 45 322 2.0 4.0 0.00 0.00 0.00 91 997.9
20260905034029 45 310 4.0 7.0 0.00 0.00 0.00 91 997.8
20260905033959 45 342 4.0 9.0 0.00 0.00 0.00 91 997.7
20260905032028 45 326 3.0 5.0 0.00 0.00 0.00 91 997.6
20260905031029 46 316 3.0 5.0 0.00 0.00 0.00 90 997.5
20260905030029 46 316 4.0 8.0 0.00 0.00 0.00 91 997.4
20260905025029 46 322 3.0 5.0 0.00 0.00 0.00 90 997.5
20260905024029 46 292 3.0 4.0 0.00 0.00 0.00 90 997.4
20260905023028 46 289 3.0 4.0 0.00 0.00 0.00 90 997.3
20260905022509 46 305 3.0 5.0 0.00 0.00 0.00 90 997.3
20260905021509 46 264 4.0 5.0 0.00 0.00 0.00 91 997.2
20260905020029 46 295 4.0 5.0 0.00 0.00 0.00 90 997.2
20260905015029 46 300 3.0 5.0 0.00 0.00 0.00 90 997.2
20260905014029 47 296 2.0 4.0 0.00 0.00 0.00 90 997.0
20260905013029 47 305 3.0 4.0 0.00 0.00 0.00 90 996.9
20260905012029 47 314 3.0 5.0 0.00 0.00 0.00 90 996.9
20260905011029 47 294 3.0 4.0 0.00 0.00 0.00 90 996.9
20260905010030 47 310 2.0 3.0 0.00 0.00 0.00 90 996.9
20260905005030 47 305 3.0 5.0 0.00 0.00 0.00 89 996.8
20260905004029 47 305 2.0 4.0 0.00 0.00 0.00 89 996.9
20260905003029 47 310 1.0 3.0 0.00 0.00 0.00 89 996.7
20260905002030 48 310 2.0 3.0 0.00 0.00 0.00 89 996.7
20260905001511 48 300 2.0 4.0 0.00 0.00 0.00 89 996.8
20260905000029 48 319 1.0 2.0 0.00 0.00 0.00 89 996.7
20260904235029 48 319 3.0 4.0 0.00 0.00 0.00 89 996.7
20260904234029 48 337 3.0 3.0 0.00 0.00 0.00 89 996.7
20260904233029 48 321 2.0 4.0 0.00 0.00 0.00 89 996.6
20260904232029 49 335 2.0 4.0 0.00 0.00 0.00 89 996.6
20260904231030 49 310 2.0 3.0 0.00 0.00 0.00 89 996.6
20260904230028 49 310 2.0 4.0 0.00 0.00 0.00 89 996.6
20260904225029 49 300 3.0 5.0 0.00 0.00 0.00 89 996.6
20260904224507 49 291 2.0 4.0 0.00 0.00 0.00 88 996.6
20260904223029 49 322 2.0 4.0 0.00 0.00 0.00 88 996.7
20260904222029 49 21 1.0 4.0 0.00 0.00 0.00 87 996.7
20260904221515 50 324 1.0 3.0 0.00 0.00 0.00 87 996.7
20260904220030 50 283 0.0 1.0 0.00 0.00 0.00 87 996.7
20260904215028 50 283 0.0 2.0 0.00 0.00 0.00 87 996.7
20260904214029 50 283 3.0 4.0 0.00 0.00 0.00 87 996.6
20260904213027 51 276 3.0 4.0 0.00 0.00 0.00 87 996.5
20260904212027 51 300 3.0 4.0 0.00 0.00 0.00 87 996.5
20260904211157 51 310 3.0 5.0 0.00 0.00 0.00 87 996.5
20260904205026 51 342 3.0 6.0 0.00 0.00 0.00 86 996.5
20260904204503 51 300 3.0 6.0 0.00 0.00 0.00 86 996.5
20260904203027 51 287 3.0 4.0 0.00 0.00 0.00 86 996.5
20260904202026 52 289 3.0 5.0 0.00 0.00 0.00 86 996.5
20260904201021 52 287 3.0 5.0 0.00 0.00 0.00 86 996.4
20260904200020 52 310 3.0 4.0 0.00 0.00 0.00 86 996.4
20260904195511 52 331 2.0 4.0 0.00 0.00 0.00 85 996.4
20260904194016 52 351 4.0 8.0 0.00 0.00 0.00 85 996.4
20260904193016 53 305 2.0 5.0 0.00 0.00 0.00 84 996.5
20260904192016 53 305 2.0 3.0 0.00 0.00 0.00 83 996.5
20260904191014 53 305 2.0 4.0 0.00 0.00 0.00 83 996.5
20260904190015 53 340 1.0 3.0 0.00 0.00 0.00 82 996.6
20260904185014 54 64 0.0 2.0 0.00 0.00 0.00 82 996.6
20260904184015 54 64 1.0 4.0 0.00 0.00 0.00 82 996.6
20260904183016 54 331 2.0 3.0 0.00 0.00 0.00 80 996.4
20260904182452 55 332 1.0 3.0 0.00 0.00 0.00 80 996.4
20260904181014 55 319 1.0 2.0 0.00 0.00 0.00 80 996.5
20260904180014 55 319 2.0 3.0 0.00 0.00 0.00 79 996.4
20260904175015 56 322 1.0 3.0 0.00 0.00 0.00 79 996.4
20260904174014 56 322 1.0 3.0 0.00 0.00 0.00 78 996.4
20260904173015 56 322 2.0 4.0 0.00 0.00 0.00 78 996.5
20260904172009 56 321 3.0 5.0 0.00 0.00 0.00 78 996.5
20260904171007 56 326 4.0 7.0 0.00 0.00 0.00 77 996.4
20260904170006 57 322 5.0 10.0 0.00 0.00 0.00 74 996.4
20260904165447 58 325 5.0 9.0 0.00 0.00 0.00 73 996.5
20260904164006 58 310 5.0 9.0 0.00 0.00 0.00 73 996.5
20260904163007 58 321 2.0 4.0 0.00 0.00 0.00 74 996.5
20260904162006 58 6 1.0 2.0 0.00 0.00 0.00 76 996.5
20260904161006 58 65 0.0 1.0 0.00 0.00 0.00 74 996.6
20260904160443 58 65 1.0 2.0 0.00 0.00 0.00 69 996.6
20260904155004 60 65 1.0 4.0 0.00 0.00 0.00 66 996.7
20260904154005 60 34 3.0 8.0 0.00 0.00 0.00 62 996.7
20260904153004 61 31 3.0 8.0 0.00 0.00 0.00 63 996.8
20260904152004 61 31 4.0 11.0 0.00 0.00 0.00 64 996.8
20260904151004 62 9 4.0 9.0 0.00 0.00 0.00 59 997.0
20260904150439 63 39 0.0 4.0 0.00 0.00 0.00 59 997.0
20260904145004 62 292 1.0 2.0 0.00 0.00 0.00 60 996.9
20260904144004 60 178 0.0 1.0 0.00 0.00 0.00 60 997.0
20260904143004 60 178 0.0 2.0 0.00 0.00 0.00 64 997.1
20260904142001 59 178 1.0 4.0 0.00 0.00 0.00 63 997.1
20260904141002 60 158 2.0 5.0 0.00 0.00 0.00 63 997.1
20260904140002 60 151 0.0 2.0 0.00 0.00 0.00 62 997.1
20260904135002 61 52 2.0 5.0 0.00 0.00 0.00 58 997.2
20260904134001 61 204 3.0 5.0 0.00 0.00 0.00 62 997.3
20260904133436 62 135 2.0 4.0 0.00 0.00 0.00 61 997.3
20260904132933 62 123 3.0 6.0 0.00 0.00 0.00 63 997.5
20260904131001 62 59 2.0 5.0 0.00 0.00 0.00 61 997.6
20260904130002 63 356 3.0 7.0 0.00 0.00 0.00 59 997.6
20260904125442 62 103 3.0 8.0 0.00 0.00 0.00 59 997.6
20260904124001 62 139 4.0 7.0 0.00 0.00 0.00 61 997.8
20260904123002 60 141 1.0 4.0 0.00 0.00 0.00 67 997.9
20260904122001 58 87 0.0 2.0 0.00 0.00 0.00 69 998.1
20260904121444 58 87 3.0 4.0 0.00 0.00 0.00 70 998.2
20260904120002 59 58 2.0 5.0 0.00 0.00 0.00 69 998.3
20260904115003 60 212 1.0 5.0 0.00 0.00 0.00 69 998.4
20260904114435 59 141 1.0 3.0 0.00 0.00 0.00 66 998.5
20260904113003 58 202 1.0 4.0 0.00 0.00 0.00 71 998.6
20260904112001 59 93 2.0 5.0 0.00 0.00 0.00 70 998.7
20260904111003 58 146 2.0 7.0 0.00 0.00 0.00 72 998.9
20260904110001 58 150 1.0 2.0 0.00 0.00 0.00 72 998.9
20260904105001 57 179 2.0 5.0 0.00 0.00 0.00 71 999.0
20260904104001 57 137 1.0 3.0 0.00 0.00 0.00 75 999.1
20260904103001 57 251 1.0 4.0 0.00 0.00 0.00 73 999.2
20260904102001 56 272 2.0 6.0 0.00 0.00 0.00 74 999.5
20260904101445 56 254 1.0 4.0 0.00 0.00 0.00 75 999.6
20260904100434 56 164 2.0 5.0 0.00 0.00 0.00 74 999.7
20260904095001 55 154 2.0 4.0 0.00 0.00 0.00 74 999.8
20260904094002 55 142 2.0 4.0 0.00 0.00 0.00 76 999.8
20260904093001 54 152 2.0 4.0 0.00 0.00 0.00 74 999.9
20260904092002 55 137 3.0 6.0 0.00 0.00 0.00 78 999.8
20260904091437 54 153 2.0 5.0 0.00 0.00 0.00 76 1000.1
20260904090002 54 140 1.0 4.0 0.00 0.00 0.00 78 1000.0
20260904085001 54 137 2.0 5.0 0.00 0.00 0.00 78 999.9
20260904084927 54 168 1.0 4.0 0.00 0.00 0.00 77 1000.0
20260904083002 54 112 1.0 4.0 0.00 0.00 0.00 77 1000.0
20260904082002 54 32 1.0 2.0 0.00 0.00 0.00 78 999.9